Location: Kumla
(59.1265°N, 15.1401°E)
Time: 14:53:30
(UTC+01:00)

Transit 2A - Pass Details

Date: 11 December 2023
Orbit: 600 x 953 km, 66.7° (Epoch: 21 February)

Event Time Altitude Azimuth Distance (km) Brightness Sun altitude
Rises 19:24:32 0° 299° (WNW) 2,930 10.0 -31.3°
Reaches altitude 10° 19:27:01 10° 308° (NW) 1,991 8.8 -31.6°
Enters shadow 19:28:47 21° 323° (NW) 1,394 7.7 -31.9°
Maximum altitude 19:31:06 35° 15° (NNE) 982 - -32.2°
Drops below altitude 10° 19:35:07 10° 83° (E) 1,952 - -32.7°
Sets 19:37:31 0° 92° (E) 2,865 - -33.0°
